Location: Bartlow
(52.0833°N, 0.3167°E)
Time: 13:02:38
(UTC+00:00)

Resurs 1-4 Rocket - Pass Details

Date: 26 September 2023
Orbit: 800 x 812 km, 98.7° (Epoch: 10 December)

Event Time Altitude Azimuth Distance (km) Brightness Sun altitude
Rises 03:17:54 0° 9° (N) 3,323 5.9 -23.2°
Reaches altitude 10° 03:20:32 10° 358° (N) 2,389 4.9 -22.9°
Maximum altitude 03:24:53 27° 302° (WNW) 1,496 3.2 -22.3°
Enters shadow 03:24:54 27° 301° (WNW) 1,496 3.2 -22.3°
